Precipitable_Water
0.62 0.61 0.58 0.54 0.51 0.50 0.48 0.45 0.43 0.43 0.42 0.40 0.39 0.39 0.42 0.41 0.39 0.34 0.19 0.22 0.30 0.41 0.52 0.54 0.49 0.40 0.62 0.61 0.82 0.93 0.46 0.39 0.52 0.57 0.59 0.62 0.51 0.55 0.60 0.56 0.82 0.91 1.03 1.35 1.33
0.63 0.63 0.61 0.58 0.55 0.53 0.51 0.49 0.47 0.47 0.47 0.44 0.42 0.39 0.38 0.39 0.29 0.22 0.24 0.27 0.34 0.48 0.41 0.36 0.32 0.33 0.34 0.53 0.69 0.62 0.39 0.39 0.55 0.53 0.51 0.56 0.50 0.47 0.48 0.46 0.66 0.74 0.92 1.25 1.42
0.60 0.60 0.60 0.58 0.56 0.54 0.53 0.53 0.52 0.53 0.53 0.51 0.48 0.44 0.40 0.40 0.18 0.21 0.45 0.47 0.41 0.45 0.38 0.37 0.36 0.38 0.40 0.60 0.62 0.58 0.38 0.45 0.43 0.40 0.39 0.40 0.36 0.48 0.45 0.37 0.49 0.51 0.69 1.04 1.25
0.61 0.59 0.58 0.57 0.57 0.55 0.54 0.54 0.55 0.55 0.55 0.55 0.53 0.47 0.45 0.34 0.14 0.35 0.49 0.52 0.43 0.43 0.34 0.32 0.31 0.33 0.36 0.39 0.54 0.41 0.45 0.38 0.34 0.37 0.38 0.36 0.39 0.35 0.36 0.35 0.44 0.50 0.73 0.95 1.04
0.64 0.59 0.57 0.57 0.56 0.56 0.55 0.56 0.57 0.57 0.58 0.57 0.53 0.48 0.41 0.19 0.16 0.43 0.50 0.51 0.51 0.42 0.32 0.29 0.28 0.39 0.37 0.41 0.37 0.33 0.30 0.32 0.35 0.36 0.35 0.34 0.30 0.32 0.33 0.35 0.39 0.50 0.73 0.81 0.91
0.70 0.63 0.57 0.55 0.55 0.56 0.59 0.59 0.57 0.56 0.54 0.52 0.49 0.51 0.28 0.17 0.31 0.51 0.47 0.47 0.42 0.36 0.34 0.38 0.46 0.59 0.43 0.34 0.30 0.30 0.29 0.29 0.28 0.27 0.30 0.29 0.29 0.32 0.33 0.39 0.41 0.58 0.68 0.81 0.91
0.76 0.68 0.59 0.55 0.55 0.60 0.62 0.58 0.56 0.51 0.49 0.47 0.48 0.46 0.25 0.20 0.43 0.55 0.44 0.39 0.47 0.45 0.36 0.48 0.59 0.50 0.39 0.31 0.32 0.29 0.24 0.26 0.29 0.30 0.30 0.31 0.28 0.28 0.32 0.34 0.34 0.47 0.68 0.79 0.92
0.81 0.74 0.65 0.57 0.57 0.62 0.60 0.55 0.52 0.52 0.49 0.49 0.56 0.46 0.24 0.37 0.49 0.47 0.45 0.41 0.56 0.54 0.44 0.42 0.47 0.40 0.36 0.34 0.31 0.27 0.28 0.22 0.27 0.30 0.30 0.30 0.23 0.28 0.32 0.31 0.31 0.47 0.60 0.73 0.86
0.84 0.78 0.71 0.61 0.59 0.62 0.59 0.52 0.51 0.54 0.55 0.60 0.55 0.46 0.32 0.52 0.40 0.40 0.43 0.36 0.45 0.49 0.47 0.52 0.45 0.36 0.36 0.28 0.24 0.27 0.20 0.22 0.24 0.30 0.29 0.27 0.24 0.30 0.45 0.36 0.33 0.46 0.56 0.69 0.82
0.87 0.81 0.75 0.67 0.62 0.61 0.58 0.58 0.57 0.60 0.61 0.65 0.53 0.38 0.40 0.34 0.37 0.36 0.41 0.39 0.32 0.28 0.29 0.31 0.31 0.29 0.28 0.25 0.18 0.20 0.21 0.22 0.22 0.27 0.28 0.24 0.24 0.32 0.44 0.42 0.40 0.42 0.57 0.67 0.72
0.89 0.84 0.77 0.71 0.62 0.61 0.55 0.46 0.35 0.33 0.36 0.28 0.34 0.36 0.36 0.39 0.38 0.34 0.35 0.35 0.32 0.29 0.23 0.26 0.23 0.22 0.24 0.26 0.25 0.25 0.23 0.22 0.24 0.27 0.24 0.22 0.24 0.32 0.42 0.48 0.50 0.51 0.49 0.59 0.68
0.91 0.85 0.78 0.72 0.60 0.60 0.54 0.37 0.40 0.40 0.27 0.35 0.33 0.31 0.34 0.36 0.28 0.31 0.35 0.28 0.27 0.23 0.26 0.25 0.22 0.27 0.30 0.30 0.28 0.27 0.24 0.24 0.26 0.27 0.25 0.22 0.22 0.34 0.39 0.46 0.55 0.58 0.64 0.67 0.68
0.92 0.88 0.79 0.73 0.56 0.44 0.47 0.42 0.51 0.43 0.29 0.32 0.33 0.31 0.31 0.32 0.26 0.28 0.32 0.30 0.27 0.25 0.24 0.22 0.25 0.32 0.31 0.29 0.28 0.28 0.27 0.26 0.25 0.27 0.28 0.25 0.21 0.27 0.40 0.45 0.50 0.56 0.64 0.70 0.74
0.94 0.89 0.82 0.72 0.51 0.50 0.44 0.50 0.51 0.44 0.26 0.26 0.30 0.30 0.31 0.31 0.26 0.33 0.34 0.31 0.28 0.25 0.27 0.26 0.32 0.32 0.31 0.30 0.30 0.27 0.33 0.30 0.28 0.26 0.21 0.26 0.17 0.22 0.33 0.35 0.42 0.47 0.51 0.57 0.64
0.95 0.88 0.82 0.76 0.59 0.43 0.45 0.50 0.53 0.42 0.16 0.28 0.29 0.35 0.31 0.28 0.28 0.29 0.36 0.32 0.27 0.26 0.27 0.25 0.28 0.29 0.30 0.32 0.34 0.29 0.33 0.30 0.30 0.27 0.24 0.24 0.19 0.22 0.33 0.30 0.35 0.43 0.48 0.55 0.65
0.92 0.86 0.78 0.70 0.58 0.50 0.56 0.57 0.47 0.27 0.16 0.24 0.27 0.26 0.26 0.29 0.29 0.30 0.30 0.33 0.33 0.28 0.28 0.28 0.35 0.34 0.33 0.36 0.35 0.35 0.31 0.29 0.28 0.25 0.17 0.22 0.21 0.20 0.30 0.36 0.44 0.50 0.52 0.56 0.59
0.86 0.81 0.72 0.69 0.44 0.57 0.57 0.45 0.27 0.22 0.32 0.25 0.26 0.30 0.28 0.28 0.27 0.26 0.25 0.25 0.24 0.20 0.21 0.28 0.31 0.36 0.37 0.31 0.34 0.32 0.27 0.18 0.15 0.15 0.14 0.24 0.21 0.25 0.41 0.48 0.48 0.48 0.52 0.57 0.62
0.77 0.71 0.68 0.65 0.67 0.63 0.45 0.32 0.21 0.29 0.28 0.33 0.31 0.31 0.29 0.32 0.30 0.28 0.25 0.25 0.31 0.30 0.27 0.25 0.24 0.34 0.39 0.34 0.31 0.30 0.26 0.17 0.12 0.14 0.17 0.27 0.20 0.29 0.44 0.51 0.52 0.56 0.60 0.61 0.59
0.58 0.51 0.53 0.58 0.65 0.59 0.35 0.21 0.25 0.29 0.33 0.31 0.32 0.29 0.30 0.34 0.33 0.32 0.32 0.32 0.34 0.35 0.27 0.26 0.26 0.38 0.40 0.39 0.35 0.29 0.25 0.31 0.24 0.27 0.22 0.23 0.28 0.35 0.45 0.45 0.48 0.51 0.61 0.62 0.63
0.43 0.39 0.44 0.57 0.61 0.44 0.28 0.24 0.30 0.36 0.36 0.34 0.28 0.30 0.27 0.30 0.31 0.32 0.32 0.36 0.35 0.39 0.41 0.34 0.26 0.36 0.37 0.38 0.39 0.35 0.38 0.27 0.29 0.18 0.16 0.21 0.24 0.23 0.32 0.36 0.48 0.50 0.54 0.65 0.70
0.37 0.25 0.46 0.56 0.48 0.32 0.21 0.26 0.32 0.38 0.36 0.30 0.29 0.31 0.32 0.32 0.34 0.33 0.34 0.39 0.42 0.41 0.43 0.39 0.33 0.31 0.36 0.32 0.30 0.31 0.27 0.29 0.31 0.30 0.22 0.18 0.23 0.37 0.39 0.50 0.52 0.58 0.62 0.69 0.77
0.32 0.16 0.47 0.52 0.28 0.29 0.24 0.31 0.39 0.37 0.38 0.33 0.34 0.32 0.31 0.32 0.31 0.32 0.33 0.38 0.46 0.44 0.36 0.40 0.34 0.28 0.31 0.38 0.40 0.37 0.34 0.32 0.24 0.23 0.28 0.28 0.24 0.45 0.56 0.63 0.68 0.69 0.75 0.81 0.87
0.28 0.26 0.54 0.47 0.21 0.25 0.32 0.33 0.38 0.37 0.36 0.34 0.31 0.32 0.33 0.29 0.26 0.33 0.36 0.44 0.46 0.42 0.38 0.40 0.32 0.26 0.29 0.34 0.39 0.35 0.37 0.35 0.34 0.33 0.24 0.23 0.22 0.46 0.60 0.65 0.72 0.70 0.76 0.86 0.90
0.34 0.20 0.41 0.43 0.41 0.31 0.28 0.30 0.32 0.43 0.38 0.39 0.35 0.34 0.32 0.29 0.32 0.29 0.30 0.37 0.41 0.43 0.46 0.44 0.35 0.30 0.24 0.30 0.35 0.31 0.31 0.31 0.31 0.25 0.26 0.28 0.31 0.42 0.54 0.61 0.70 0.73 0.80 0.88 0.92
0.42 0.32 0.40 0.32 0.36 0.38 0.35 0.32 0.30 0.32 0.41 0.42 0.35 0.32 0.29 0.25 0.27 0.27 0.30 0.30 0.33 0.38 0.38 0.36 0.27 0.30 0.32 0.34 0.35 0.30 0.25 0.22 0.26 0.27 0.29 0.30 0.36 0.45 0.57 0.64 0.71 0.80 0.84 0.86 0.89
0.37 0.36 0.46 0.39 0.45 0.40 0.38 0.34 0.31 0.34 0.37 0.36 0.33 0.34 0.33 0.29 0.29 0.26 0.29 0.28 0.26 0.31 0.30 0.32 0.24 0.27 0.23 0.27 0.28 0.25 0.22 0.24 0.28 0.38 0.43 0.45 0.42 0.64 0.72 0.76 0.73 0.79 0.85 0.85 0.89
0.56 0.60 0.49 0.39 0.36 0.33 0.36 0.38 0.37 0.39 0.39 0.40 0.38 0.36 0.34 0.36 0.38 0.38 0.37 0.36 0.34 0.29 0.25 0.26 0.23 0.22 0.16 0.21 0.23 0.16 0.18 0.30 0.42 0.52 0.51 0.42 0.55 0.70 0.67 0.69 0.71 0.78 0.86 0.89 0.92
Wind_Speed
11 11 11 11 12 12 13 13 12 11 11 11 11 10 10 9 9 7 8 7 5 5 3 3 3 3 3 4 5 4 4 5 5 6 9 10 10 10 11 10 8 6 5 6 2
12 12 12 12 12 12 12 11 11 11 11 10 10 9 7 6 5 6 6 5 5 6 4 2 2 1 2 3 3 2 3 5 6 9 10 13 12 14 12 11 9 7 8 4 4
13 13 13 13 13 13 12 12 12 11 10 10 9 8 7 5 3 2 2 3 5 6 5 3 2 2 2 3 3 3 4 7 9 9 9 11 14 12 11 12 11 11 8 6 7
14 14 14 14 14 13 13 12 12 11 10 10 9 7 5 3 2 2 4 2 3 4 3 3 3 2 3 4 4 5 8 9 9 10 11 11 12 12 11 14 13 12 7 6 9
15 15 15 15 14 14 13 12 12 12 11 10 7 5 4 3 3 2 2 2 1 2 2 2 3 3 4 5 7 7 9 10 13 14 13 13 13 10 13 13 12 9 7 9 9
16 16 16 16 15 14 13 13 13 11 9 7 5 3 3 3 3 2 1 0 2 3 4 3 3 4 5 6 7 9 11 12 11 10 7 7 8 6 11 12 11 7 8 11 11
17 17 17 17 16 14 14 14 11 9 7 6 3 3 2 3 3 2 2 3 3 4 4 4 4 4 5 8 7 10 11 8 7 6 8 9 7 9 13 13 12 8 7 9 12
17 18 18 18 16 14 14 12 9 8 6 4 3 4 4 3 3 4 4 4 4 3 3 5 5 5 6 6 8 7 5 6 8 8 9 7 9 13 16 14 14 9 8 9 11
18 18 19 19 16 15 14 10 8 7 6 5 5 4 5 4 5 6 5 4 3 4 4 5 5 4 5 5 7 7 6 7 10 9 11 8 11 14 16 15 15 12 10 10 11
18 19 20 20 16 15 14 9 8 8 7 7 7 5 5 6 7 7 6 5 5 4 3 4 4 4 5 5 6 8 8 9 9 9 12 12 13 15 16 15 15 13 12 12 13
19 20 20 20 16 14 13 10 10 8 10 8 8 8 8 9 9 6 4 3 3 3 3 4 3 6 8 7 8 9 9 9 10 11 9 10 9 13 14 14 14 13 12 12 14
20 21 21 21 16 14 11 9 9 11 11 10 10 11 11 9 9 7 5 4 4 4 4 5 6 9 9 7 8 8 9 10 11 10 9 13 10 12 12 11 12 13 14 14 15
21 21 21 22 16 13 12 10 12 10 9 10 8 7 7 6 7 7 5 5 5 4 6 5 7 9 7 8 7 7 8 10 10 12 11 13 12 12 12 12 12 13 13 14 15
22 22 22 22 13 14 12 13 14 10 8 10 8 8 7 6 6 6 6 5 5 6 4 6 7 7 6 7 7 8 11 13 13 10 11 12 13 13 12 13 13 15 15 16 17
23 23 23 19 16 13 14 15 12 9 8 9 8 8 7 6 7 6 7 7 7 7 5 9 7 7 7 10 10 12 14 14 14 12 12 14 11 13 13 14 15 16 17 17 17
24 23 23 17 15 14 15 14 10 8 8 9 8 8 7 8 9 8 8 7 7 7 9 10 9 8 10 11 12 16 15 15 13 12 11 12 10 14 12 13 15 16 18 18 19
25 24 21 16 14 15 15 11 9 8 9 9 8 8 8 10 9 8 8 8 9 9 10 9 9 10 10 12 14 15 15 15 12 12 12 12 13 14 13 13 16 19 21 21 20
25 24 18 15 15 15 13 10 10 10 10 9 9 8 7 9 8 8 7 8 8 7 7 7 10 10 13 13 15 14 12 10 14 12 15 15 13 12 13 14 18 20 19 20 20
24 19 15 15 14 13 11 10 11 11 12 11 9 8 10 9 9 8 7 8 9 8 7 8 10 12 11 14 14 16 14 13 11 14 13 14 14 15 14 18 21 22 21 21 20
21 18 16 16 15 14 11 13 13 12 12 11 10 10 10 12 10 9 10 10 10 9 9 11 12 12 15 13 14 10 12 13 13 13 15 15 16 17 18 22 22 22 23 22 20
18 17 16 16 15 13 12 14 14 14 13 12 12 12 12 12 12 12 12 10 11 12 10 11 11 14 14 13 12 13 13 12 12 12 13 17 18 18 22 21 24 24 23 22 21
18 17 17 16 13 13 12 13 14 14 13 13 13 12 12 12 12 11 10 12 14 13 13 13 12 13 15 14 14 13 13 13 13 17 18 18 22 20 20 23 23 24 23 22 20
19 19 17 15 14 14 15 14 14 14 13 12 13 12 12 11 11 10 11 13 14 13 13 14 14 14 16 15 15 16 16 16 16 17 18 18 21 24 24 24 24 25 24 23 23
19 18 17 15 15 15 15 15 15 15 15 14 15 13 13 12 12 12 13 14 15 14 14 14 15 15 16 18 17 19 19 20 17 17 20 21 27 25 25 25 26 26 26 25 24
20 20 19 18 17 16 16 16 16 16 16 16 15 14 14 13 14 14 15 16 16 16 15 15 17 19 20 20 21 22 24 23 19 20 19 26 23 25 26 24 25 25 26 25 24
22 21 21 22 21 20 18 18 17 18 18 18 16 17 16 16 16 17 17 18 18 19 18 20 21 20 23 23 24 23 23 22 24 21 23 23 25 24 24 26 26 25 24 24 24
25 25 23 23 22 21 21 20 19 19 19 19 19 19 19 18 19 19 20 20 21 22 21 21 20 20 24 22 22 23 20 19 19 18 19 21 22 22 23 22 21 22 23 26 25
Wind_Direction
351 347 344 341 340 338 336 334 333 332 329 326 322 316 308 300 293 280 274 267 267 225 228 222 272 288 282 295 282 291 307 287 281 297 286 308 323 331 331 331 321 316 301 304 181
352 348 344 342 340 340 342 343 342 339 339 338 338 337 332 323 303 284 279 264 240 206 200 208 260 240 324 310 314 303 292 276 284 294 288 295 305 315 324 326 313 314 319 272 212
353 349 346 343 341 339 339 338 337 337 336 337 337 339 343 347 345 319 343 268 215 207 222 246 260 253 289 304 305 302 290 294 294 297 300 294 300 306 308 314 299 292 294 253 217
352 349 346 342 338 336 336 335 333 332 332 330 330 332 339 356 37 27 18 59 170 196 210 246 260 259 287 289 301 303 295 301 300 299 305 302 301 303 296 301 298 288 266 236 218
350 347 344 340 337 334 333 331 329 325 322 322 324 327 332 342 307 322 355 72 135 185 227 243 249 262 287 293 303 292 303 302 300 299 292 297 291 294 299 315 309 302 249 229 226
348 346 343 340 336 334 332 329 326 324 324 325 322 325 331 335 343 314 296 288 267 251 246 243 254 268 296 301 305 303 304 305 305 313 320 319 307 317 318 325 322 304 257 238 230
346 345 343 340 337 334 331 328 328 329 330 331 322 314 316 296 338 334 285 290 277 279 245 251 269 291 301 312 314 313 321 327 339 343 334 326 322 321 330 327 324 302 276 243 233
343 342 341 339 336 332 331 329 329 331 332 329 321 304 289 300 315 312 291 293 280 282 262 260 269 288 301 310 333 342 346 337 321 333 336 335 305 315 327 322 326 307 281 252 239
339 340 339 338 333 331 329 323 326 326 324 321 312 295 284 296 302 307 287 287 277 276 274 271 281 291 312 323 334 339 319 311 317 318 332 336 307 322 326 322 320 307 286 264 251
336 336 336 336 331 330 327 312 315 313 310 304 294 289 282 292 299 301 285 268 284 281 288 285 289 291 309 321 300 303 314 312 301 315 327 323 318 321 326 329 316 312 298 275 258
331 332 332 332 325 326 329 312 314 306 310 291 284 280 285 290 291 285 275 259 264 297 285 292 284 276 280 285 296 302 302 297 303 306 311 311 325 327 328 334 333 320 311 295 280
326 328 328 328 317 315 321 319 311 298 300 294 283 279 275 285 287 272 245 255 264 275 284 299 277 289 291 293 287 294 305 305 306 317 318 326 325 325 334 337 335 332 329 308 290
322 324 325 325 313 309 306 308 309 300 294 294 283 280 287 273 273 259 236 255 269 279 269 260 286 308 293 304 299 300 306 306 298 319 318 319 318 322 322 326 332 332 329 326 313
318 320 321 321 305 307 296 304 305 290 296 287 288 286 284 275 280 253 244 252 282 282 270 271 290 307 324 307 307 299 299 301 306 316 307 319 305 310 311 315 321 325 326 324 325
313 315 316 312 301 297 295 299 296 289 291 282 284 280 278 264 279 274 256 268 269 277 287 280 286 296 306 303 304 297 307 305 304 303 311 315 318 302 320 319 321 320 322 319 316
309 310 311 304 297 293 297 294 282 289 277 285 284 283 279 276 276 274 265 271 278 280 293 281 286 298 297 304 308 308 310 314 307 304 310 304 314 306 310 311 314 319 322 319 317
306 306 302 295 292 295 295 283 282 267 284 285 279 287 277 282 285 280 263 281 278 294 298 298 293 294 310 310 309 319 317 310 312 312 292 305 310 296 304 309 315 316 316 315 315
303 301 293 285 289 293 288 277 267 273 270 280 284 276 279 296 287 289 279 279 295 287 287 289 293 306 312 306 303 311 308 299 296 295 297 306 298 302 301 314 319 318 318 318 316
302 296 285 285 285 288 281 270 258 269 277 283 274 275 282 287 285 280 288 277 282 282 279 288 288 298 304 310 311 307 315 302 302 305 305 301 302 307 310 308 314 313 314 315 315
296 290 280 284 280 283 272 261 264 267 275 273 268 265 276 283 284 287 282 282 284 289 290 278 291 296 300 309 316 316 307 312 311 307 304 302 300 299 305 310 310 311 311 308 307
289 283 276 285 281 277 262 261 264 267 268 262 266 269 272 277 275 279 278 274 293 287 291 288 288 292 301 306 300 310 309 316 304 299 295 302 298 299 303 308 308 306 308 305 305
282 277 279 277 276 270 264 262 266 268 273 270 264 266 269 272 279 277 272 281 294 284 289 290 287 289 291 296 294 297 301 303 301 295 293 295 298 305 304 305 306 306 308 304 302
278 272 273 269 264 267 269 266 263 272 274 273 271 270 270 273 277 277 278 285 296 289 283 281 291 296 302 300 298 296 296 301 299 300 289 292 298 304 303 306 305 304 304 303 301
273 271 269 267 262 260 266 266 267 272 263 271 266 267 266 273 277 269 281 279 290 286 294 288 284 278 279 284 290 294 293 292 288 292 292 289 297 303 302 302 302 303 301 301 299
267 265 262 265 263 264 261 263 263 268 265 272 266 266 263 265 270 272 278 282 285 286 287 287 282 281 283 285 287 291 293 289 281 286 286 295 292 298 302 301 301 302 300 299 298
263 264 264 261 261 260 260 260 260 264 261 267 263 267 265 262 263 266 272 276 278 282 281 285 282 280 281 282 285 288 289 284 284 287 289 293 295 299 303 303 303 303 302 299 298
262 261 259 259 260 257 255 256 258 263 259 260 267 265 265 268 267 271 271 276 278 279 281 280 279 284 284 285 290 293 288 287 291 294 294 293 295 304 307 311 311 312 309 302 296